Date,TemperatureHighF,TemperatureAvgF,TemperatureLowF,DewpointHighF,DewpointAvgF,DewpointLowF,HumidityHigh,HumidityAvg,HumidityLow,PressureMaxIn,PressureMinIn,WindSpeedMaxMPH,WindSpeedAvgMPH,GustSpeedMaxMPH,PrecipitationSumIn
2013-2-1,6,1,-4,3,-5,-8,88,78,68,30.38,30.19,6,1,9,0.00
2013-2-2,10,6,0,5,2,-3,89,80,68,30.22,30.09,9,2,10,0.00
2013-2-3,18,11,1,11,6,-2,89,80,66,30.11,30.00,6,0,14,0.00
2013-2-4,17,12,5,13,8,1,90,83,66,30.09,29.98,9,2,11,0.00
2013-2-5,26,17,0,22,13,-3,92,86,77,30.16,29.84,6,1,11,0.00
2013-2-6,32,21,3,29,16,0,93,81,69,30.28,30.13,5,0,6,0.05
2013-2-7,33,31,21,32,29,20,97,93,86,30.15,29.93,8,1,13,0.07
2013-2-8,23,18,5,20,15,3,94,89,83,30.45,30.06,10,3,14,0.00
2013-2-9,27,18,5,24,16,2,100,91,87,30.46,30.14,5,1,7,0.00
2013-2-10,43,34,22,42,32,21,98,95,84,30.14,29.44,8,2,11,0.32
2013-2-11,39,31,26,35,26,21,89,83,77,29.99,29.44,9,4,18,0.00
2013-2-12,27,23,20,21,18,16,93,82,70,30.11,29.91,6,1,10,0.00
2013-2-13,39,30,20,30,25,18,95,84,69,29.91,29.72,4,1,7,0.00
2013-2-14,34,32,27,33,29,22,94,87,79,29.99,29.60,8,1,13,0.05
2013-2-15,27,19,11,25,11,4,92,71,55,30.23,30.00,12,2,16,0.00
2013-2-16,15,10,4,4,1,-1,85,69,52,30.25,30.18,7,1,14,0.00
2013-2-17,25,14,0,13,3,-4,86,64,41,30.28,30.04,4,1,7,0.00
2013-2-18,46,35,24,40,28,13,96,78,63,30.03,29.44,6,2,10,0.45
2013-2-19,28,14,6,26,10,0,94,84,74,30.20,29.51,6,2,12,0.00
2013-2-20,19,11,4,10,5,-1,88,77,67,30.45,30.20,7,2,11,0.00
2013-2-21,25,19,10,23,15,7,92,86,76,30.48,30.13,11,4,15,0.00
2013-2-22,30,27,23,28,25,21,95,93,86,30.13,29.81,9,2,13,0.02
2013-2-23,28,24,19,24,20,16,92,85,74,29.96,29.86,6,2,9,0.01
2013-2-24,35,25,17,26,20,15,92,82,65,30.18,29.96,3,0,6,0.09
2013-2-25,40,28,15,27,22,13,93,79,57,30.22,30.09,3,0,6,0.14
2013-2-26,33,31,30,31,28,25,97,87,77,30.08,29.63,16,7,29,0.00
2013-2-27,32,30,28,31,29,27,97,96,94,29.77,29.60,16,8,18,0.01
2013-2-28,32,29,23,30,26,19,95,87,78,30.15,29.78,16,8,21,0.00